Location: B�hl
(48.6968°N, 8.1352°E)
Time: 08:13:53
(UTC+00:00)

Cosmos 1378 - Pass Details

Date: 08 March 2021
Orbit: 489 x 501 km, 82.5° (Epoch: 11 April)

Event Time Altitude Azimuth Distance (km) Brightness Sun altitude
Rises 18:12:55 0° 358° (N) 2,600 6.8 -9.2°
Reaches altitude 10° 18:15:12 10° 8° (N) 1,709 5.8 -9.6°
Maximum altitude 18:18:37 33° 74° (ENE) 859 3.8 -10.1°
Drops below altitude 10° 18:21:59 10° 139° (SE) 1,688 5.4 -10.7°
Enters shadow 18:23:00 - 145° (SE) 2,080 5.9 -10.8°
